Home   Weather   Kaufbeuren   Past weeks

Flag for Germany Past Weather in Kaufbeuren, Bavaria, Germany — Yesterday and Last 2 Weeks

Now
63 °F

Mild.


Feels Like: 63 °F
Forecast: 59 / 73 °F
Wind: 5 mph from Southwest

Location: Altenstadt Airport

Current Time: Aug 31, 2016 at 11:58:28 PM

Latest Report: Aug 31, 2016 at 11:20 PM


Visibility: N/A

Pressure: 30.21 "Hg (27.84 "Hg at 693m altitude)

Humidity: 88%

Dew Point: 59 °F

Location of KaufbeurenLocation

Past Weather in Kaufbeuren — Graph

°F

Kaufbeuren Temperature Yesterday

Maximum temperature yesterday: 68 °F (at 1:20 PM)
Minimum temperature yesterday: 57 °F (at 6:20 AM)
Average temperature yesterday: 62 °F

High & Low Weather Summary for the Past Weeks

 TemperatureHumidityPressure
High86 °F (Aug 26, 4:20 PM)100% (Aug 17, 5:20 AM)30.45 "Hg (Aug 17, 5:20 AM)
Low48 °F (Aug 23, 4:20 AM)42% (Aug 28, 5:20 PM)29.89 "Hg (Aug 18, 4:20 AM)
Average63 °F79%30.15 "Hg
* Reported Aug 16 10:20 PM — Aug 31 10:20 PM, Kaufbeuren, Weather by CustomWeather, © 2016

Note: Actual official high and low records may vary slightly from our data, if they occured in-between our weather recording intervals... More about our weather records

Advertising

Kaufbeuren Weather History for the Previous 24 Hours

Scroll right to see more
 ConditionsComfort  
Time TempWeatherWind HumidityBarometerVisibility
10:20 PM
Wed, Aug 31
63 °FMild.5 mph88%30.18 "HgN/A
9:20 PM64 °FMild.2 mph88%30.18 "HgN/A
8:20 PM66 °FPassing clouds.1 mph83%30.18 "HgN/A
7:20 PM72 °FPassing clouds.3 mph69%30.15 "HgN/A
6:20 PM73 °FPassing clouds.5 mph65%30.15 "HgN/A
5:20 PM73 °FPassing clouds.5 mph65%30.18 "HgN/A
4:20 PM73 °FPassing clouds.7 mph65%30.15 "HgN/A
3:20 PM73 °FPassing clouds.7 mph65%30.18 "HgN/A
2:20 PM72 °FPassing clouds.8 mph69%30.18 "HgN/A
1:20 PM70 °FPassing clouds.6 mph73%30.18 "HgN/A
12:20 PM66 °FPassing clouds.7 mph83%30.21 "HgN/A
11:20 AM66 °FPassing clouds.1 mph78%30.18 "HgN/A
10:55 AM61 °FScattered clouds.2 mph94%30.18 "Hg6 mi
10:20 AM59 °FFog.2 mph94%30.18 "Hg1 mi
10:00 AM57 °FFog.2 mph100%30.18 "Hg1 mi
9:20 AM57 °FFog.2 mph94%30.18 "Hg0 mi
8:20 AM55 °FFog.1 mph100%30.18 "Hg0 mi
7:45 AM55 °FFog.3 mph100%30.18 "Hg0 mi
7:20 AM55 °FFog.2 mph100%30.18 "Hg0 mi
6:45 AM55 °FFog.3 mph94%30.18 "Hg1 mi
6:20 AM55 °FFog.3 mph100%30.18 "Hg2 mi
5:20 AM55 °FFog.2 mph94%30.18 "Hg3 mi
4:20 AM55 °FCool.5 mph94%30.18 "HgN/A
3:20 AM57 °FCool.5 mph88%30.18 "HgN/A
2:20 AM57 °FCool.9 mph88%30.18 "HgN/A
1:20 AM57 °FCool.7 mph88%30.21 "HgN/A
12:20 AM57 °FCool.7 mph88%30.21 "HgN/A
11:20 PM
Tue, Aug 30
59 °FCool.3 mph88%30.24 "HgN/A
Weather by CustomWeather, © 2016

See weather overviewHow to use our weather pages